Date String (YYYY-MM-DD hh:mm:ss) UTC,Instrument flags,Ambient pressure (hPa),Sample flow (lpm),Bypass flow (lpm),Sample temperature (°C),Ambient temperature (°C),ASC tube jacket temperature (°C),LED temperature (°C),Box temperature (°C),Sample RH (%),Span deviation,Mass concentration (μg/m³),Mass concentration (μg/m³),Mass concentration (μg/m³)
DateTimeUTC,F1_M11,P_M11,Q1_M11,Q2_M11,T1_M11,T2_M11,T3_M11,T4_M11,T5_M11,U1_M11,ZSPAN_M11,X0_M11,X2_M11,X1_M11
2021-08-24 04:00:00,,0825.9,4.99,0.00,29.4,28.4,00.0,38.4,31.3,11.9,0000.0,0006.84,0002.38,0002.08
2021-08-24 04:01:00,,0825.9,4.99,0.00,29.4,28.5,00.0,38.4,31.3,11.5,0000.0,0006.83,0002.39,0002.08
2021-08-24 04:02:00,,0825.9,4.99,0.00,29.5,28.6,00.0,38.4,31.3,11.5,0000.0,0006.84,0002.39,0002.09
2021-08-24 04:03:00,,0825.9,5.00,0.00,29.5,28.7,00.0,38.4,31.4,11.3,0000.0,0006.90,0002.43,0002.12
2021-08-24 04:04:00,,0825.9,5.00,0.00,29.5,28.8,00.0,38.5,31.4,11.3,0000.0,0006.99,0002.48,0002.16
2021-08-24 04:05:00,,0826.0,5.01,0.00,29.5,28.0,00.0,38.5,31.2,11.2,0000.0,0006.39,0002.51,0002.18
2021-08-24 04:06:00,,0825.9,5.00,0.00,29.4,26.4,00.0,38.4,30.8,12.3,0000.0,0006.61,0002.54,0002.18
2021-08-24 04:07:00,,0825.9,5.00,0.00,29.3,26.4,00.0,38.4,30.7,11.9,0000.0,0007.01,0002.54,0002.16
2021-08-24 04:08:00,,0826.0,4.99,0.00,29.3,26.7,00.0,38.4,30.8,11.3,0000.0,0006.57,0002.53,0002.11
2021-08-24 04:09:00,,0826.0,5.00,0.00,29.2,27.1,00.0,38.4,30.9,11.1,0000.0,0006.60,0002.51,0002.06
2021-08-24 04:10:00,,0826.0,5.00,0.00,29.3,27.4,00.0,38.4,31.0,11.1,0000.0,0005.52,0002.49,0002.05
2021-08-24 04:11:00,,0826.0,5.00,0.00,29.3,27.7,00.0,38.4,31.1,11.0,0000.0,0004.64,0002.44,0002.03
2021-08-24 04:12:00,,0826.0,5.00,0.00,29.3,28.0,00.0,38.4,31.1,10.5,0000.0,0004.63,0002.43,0002.01
2021-08-24 04:13:00,,0826.0,4.98,0.00,29.4,28.2,00.0,38.4,31.2,10.1,0000.0,0004.60,0002.41,0001.99
2021-08-24 04:14:00,,0826.0,5.01,0.00,29.4,28.3,00.0,38.4,31.2,10.6,0000.0,0004.76,0002.39,0001.97
2021-08-24 04:15:00,,0826.0,5.00,0.00,29.4,28.5,00.0,38.4,31.3,11.0,0000.0,0004.91,0002.38,0001.95
2021-08-24 04:16:00,,0826.0,5.00,0.00,29.5,28.6,00.0,38.4,31.4,10.6,0000.0,0005.95,0002.33,0001.95
2021-08-24 04:17:00,,0826.1,4.99,0.00,29.5,28.7,00.0,38.5,31.4,10.8,0000.0,0005.38,0002.27,0001.93
2021-08-24 04:18:00,,0826.1,5.00,0.00,29.6,28.8,00.0,38.5,31.5,10.7,0000.0,0005.05,0002.24,0001.89
2021-08-24 04:19:00,,0826.1,5.00,0.00,29.6,28.6,00.0,38.5,31.4,11.4,0000.0,0004.90,0002.20,0001.89
2021-08-24 04:20:00,,0826.1,4.99,0.00,29.5,26.8,00.0,38.5,30.9,11.6,0000.0,0005.11,0002.19,0001.90
2021-08-24 04:21:00,,0826.1,4.99,0.00,29.4,26.3,00.0,38.5,30.8,11.0,0000.0,0005.24,0002.18,0001.89
2021-08-24 04:22:00,,0826.1,5.00,0.00,29.3,26.6,00.0,38.5,30.9,11.4,0000.0,0005.30,0002.19,0001.88
2021-08-24 04:23:00,,0826.0,5.01,0.00,29.3,27.0,00.0,38.4,30.9,11.3,0000.0,0005.40,0002.20,0001.90
2021-08-24 04:24:00,,0826.1,4.99,0.00,29.3,27.3,00.0,38.4,31.0,10.6,0000.0,0005.49,0002.23,0001.90
2021-08-24 04:25:00,,0826.2,5.01,0.00,29.3,27.6,00.0,38.4,31.1,10.2,0000.0,0005.74,0002.26,0001.90
2021-08-24 04:26:00,,0826.1,4.99,0.00,29.3,27.9,00.0,38.4,31.1,10.0,0000.0,0006.23,0002.21,0001.88
2021-08-24 04:27:00,,0826.1,4.99,0.00,29.4,28.1,00.0,38.4,31.2,10.0,0000.0,0005.78,0002.21,0001.86
2021-08-24 04:28:00,,0826.1,5.01,0.00,29.4,28.2,00.0,38.4,31.2,10.0,0000.0,0004.97,0002.17,0001.84
2021-08-24 04:29:00,,0826.1,5.00,0.00,29.4,28.4,00.0,38.4,31.3,10.1,0000.0,0004.89,0002.16,0001.84
2021-08-24 04:30:00,,0826.1,4.99,0.00,29.5,28.5,00.0,38.5,31.3,10.0,0000.0,0004.86,0002.12,0001.83
2021-08-24 04:31:00,,0826.1,4.99,0.00,29.5,28.6,00.0,38.5,31.4,09.8,0000.0,0005.15,0002.07,0001.79
2021-08-24 04:32:00,,0826.0,5.01,0.00,29.5,28.7,00.0,38.5,31.4,09.8,0000.0,0005.73,0002.02,0001.76
2021-08-24 04:33:00,,0826.0,4.99,0.00,29.6,28.8,00.0,38.5,31.5,09.4,0000.0,0005.73,0001.98,0001.73
2021-08-24 04:34:00,,0826.1,5.02,0.00,29.6,28.5,00.0,38.5,31.4,09.5,0000.0,0005.61,0001.94,0001.70
2021-08-24 04:35:00,,0826.0,5.00,0.00,29.5,26.8,00.0,38.5,31.0,09.8,0000.0,0005.60,0001.93,0001.68
2021-08-24 04:36:00,,0826.0,5.00,0.00,29.4,26.4,00.0,38.5,30.9,09.8,0000.0,0005.24,0001.85,0001.66
2021-08-24 04:37:00,,0826.0,5.01,0.00,29.4,26.7,00.0,38.5,30.9,09.7,0000.0,0004.90,0001.84,0001.65
2021-08-24 04:38:00,,0826.1,4.99,0.00,29.3,27.1,00.0,38.5,30.9,09.7,0000.0,0004.63,0001.82,0001.64
2021-08-24 04:39:00,,0826.0,5.01,0.00,29.3,27.4,00.0,38.5,31.0,09.6,0000.0,0004.50,0001.79,0001.61
2021-08-24 04:40:00,,0826.0,5.00,0.00,29.4,27.7,00.0,38.4,31.1,09.8,0000.0,0004.48,0001.78,0001.60
2021-08-24 04:41:00,,0826.0,5.00,0.00,29.4,28.0,00.0,38.4,31.2,09.7,0000.0,0004.55,0001.79,0001.58
2021-08-24 04:42:00,,0826.0,5.00,0.00,29.4,28.2,00.0,38.5,31.2,09.5,0000.0,0004.27,0001.79,0001.57
2021-08-24 04:43:00,,0826.0,5.00,0.00,29.5,28.4,00.0,38.5,31.3,09.7,0000.0,0003.31,0001.80,0001.56
2021-08-24 04:44:00,,0826.0,5.01,0.00,29.5,28.5,00.0,38.5,31.3,09.6,0000.0,0004.07,0001.79,0001.55
2021-08-24 04:45:00,,0826.0,4.99,0.00,29.5,28.6,00.0,38.5,31.4,09.7,0000.0,0004.19,0001.82,0001.55
2021-08-24 04:46:00,,0826.1,4.99,0.00,29.6,28.7,00.0,38.5,31.4,09.7,0000.0,0004.14,0001.82,0001.55
2021-08-24 04:47:00,,0826.0,5.01,0.00,29.6,28.8,00.0,38.6,31.5,09.5,0000.0,0004.30,0001.83,0001.54
2021-08-24 04:48:00,,0826.1,5.01,0.00,29.7,28.4,00.0,38.6,31.4,09.6,0000.0,0003.89,0001.83,0001.53
2021-08-24 04:49:00,,0826.0,5.01,0.00,29.5,26.7,00.0,38.6,30.9,09.7,0000.0,0003.75,0001.83,0001.51
2021-08-24 04:50:00,,0826.0,4.99,0.00,29.4,26.4,00.0,38.6,30.8,09.8,0000.0,0003.78,0001.86,0001.52
2021-08-24 04:51:00,,0826.0,5.00,0.00,29.4,26.7,00.0,38.5,30.9,09.9,0000.0,0003.74,0001.83,0001.51
2021-08-24 04:52:00,,0826.1,4.99,0.00,29.4,27.1,00.0,38.5,31.0,10.2,0000.0,0003.59,0001.79,0001.49
2021-08-24 04:53:00,,0826.1,5.01,0.00,29.4,27.5,00.0,38.5,31.1,09.9,0000.0,0003.53,0001.81,0001.49
2021-08-24 04:54:00,,0826.1,4.99,0.00,29.4,27.8,00.0,38.5,31.1,09.6,0000.0,0003.39,0001.79,0001.49
2021-08-24 04:55:00,,0826.2,5.01,0.00,29.4,28.0,00.0,38.5,31.2,09.5,0000.0,0002.52,0001.77,0001.48
2021-08-24 04:56:00,,0826.2,4.98,0.00,29.5,28.2,00.0,38.5,31.2,09.5,0000.0,0002.39,0001.73,0001.47
2021-08-24 04:57:00,,0826.2,5.01,0.00,29.5,28.4,00.0,38.5,31.3,09.4,0000.0,0002.35,0001.69,0001.46
2021-08-24 04:58:00,,0826.2,4.98,0.00,29.5,28.5,00.0,38.5,31.4,09.5,0000.0,0002.22,0001.68,0001.46
2021-08-24 04:59:00,,0826.2,5.00,0.00,29.6,28.6,00.0,38.5,31.4,09.2,0000.0,0002.09,0001.65,0001.45
